Location: Leiter
(44.7178°N, 106.2687°W)
Time: 22:50:49
(UTC+00:00)

STARS - Pass Details

Date: 05 July 2022
Orbit: 620 x 637 km, 98.2° (Epoch: 16 August)

Event Time Altitude Azimuth Distance (km) Brightness Sun altitude
Rises 04:30:50 0° 34° (NNE) 2,925 ? -13.4°
Reaches altitude 10° 04:34:16 10° 62° (ENE) 2,007 ? -13.7°
Maximum altitude 04:36:14 13° 90° (E) 1,818 ? -14.0°
Enters shadow 04:36:53 13° 99° (E) 1,837 ? -14.0°
